Location: Gleizolles
(44.4833°N, 6.7667°E)
Time: 02:39:39
(UTC+00:00)

X-37B - Pass Details

Date: 13 December 2021
Orbit: 334 x 337 km, 45.0° (Epoch: 11 January)

Event Time Altitude Azimuth Distance (km) Brightness Sun altitude
Rises 17:39:38 0° 276° (W) 2,105 5.6 -18.1°
Reaches altitude 10° 17:41:38 10° 278° (W) 1,268 4.2 -18.5°
Enters shadow 17:44:11 67° 299° (WNW) 365 0.5 -18.9°
